Weather History for Macomb, IL

Change the Weather History Date:

Friday, August 2, 2013

  Actual Average (KBRL) Record (KBRL)
Temperature  
Mean Temperature 76 °F 76 °F  
Max Temperature 86 °F 86 °F 102 °F (1947)
Min Temperature 67 °F 66 °F 52 °F (1907)
Degree Days  
Heating Degree Days 0 0  
Month to date heating degree days 0  
Since 1 June heating degree days 14  
Since 1 July heating degree days 1  
Cooling Degree Days 12 11  
Month to date cooling degree days 22  
Year to date cooling degree days 751  
Since 1 June cooling degree days 648  
Growing Degree Days 26 (Base 50)    
Moisture  
Dew Point 67 °F    
Average Humidity 73    
Maximum Humidity 91    
Minimum Humidity 53    
Precipitation  
Precipitation 0.00 in 0.14 in 0.78 in (2001)
Month to date precipitation 0.27  
Year to date precipitation 23.25  
Sea Level Pressure  
Sea Level Pressure 29.95 in    
Wind  
Wind Speed 6 mph (SW)    
Max Wind Speed 14 mph    
Max Gust Speed 18 mph    
Visibility 10 miles    
Events      
T = Trace of Precipitation, MM = Missing Value Source: NWS Daily Summary

Daily Weather History Graph

Daily Weather History Graph

Search for Another Location

Airport:

Trip Planner

Search our weather history database for the weather conditions in past years. The results will help you decide how hot, cold, wet, or windy it might be!

Date:

Astronomy

Aug. 02, 2013 Rise Set
Actual Time 6:00 AM CDT 8:16 PM CDT
Civil Twilight 5:30 AM CDT 8:46 PM CDT
Nautical Twilight 4:52 AM CDT 9:23 PM CDT
Astronomical Twilight 4:11 AM CDT 10:05 PM CDT
Moon 2:21 AM CDT (8/2) 5:14 PM CDT (8/2)
Length of Visible Light 15h 16m
Length of Day
14h 15m
Waning Crescent, 15% of the Moon is Illuminated
Aug 2
Waning Crescent
Aug 6
New
Aug 14
First Quarter
Aug 20
Full
Aug 28
Last Quarter

Hourly Weather History & Observations

Time (CDT) Temp. Heat Index Dew Point Humidity Pressure Visibility Wind Dir Wind Speed Gust Speed Precip Events Conditions
12:15 AM 68.5 °F - 64.8 °F 88% 29.98 in 10.0 mi South 4.6 mph - N/A   Clear
12:35 AM 68.2 °F - 64.9 °F 89% 29.98 in 10.0 mi SSW 5.8 mph - N/A   Clear
12:55 AM 70.3 °F - 64.6 °F 82% 29.97 in 10.0 mi SSW 5.8 mph - N/A   Clear
1:15 AM 70.0 °F - 64.4 °F 82% 29.97 in 10.0 mi South 4.6 mph - N/A   Clear
1:35 AM 69.6 °F - 64.4 °F 83% 29.97 in 10.0 mi South 3.5 mph - N/A   Clear
1:55 AM 68.0 °F - 64.4 °F 88% 29.97 in 10.0 mi South 3.5 mph - N/A   Clear
2:15 AM 67.5 °F - 64.2 °F 89% 29.96 in 10.0 mi South 4.6 mph - N/A   Scattered Clouds
2:35 AM 69.3 °F - 64.8 °F 86% 29.96 in 10.0 mi SSW 5.8 mph - N/A   Mostly Cloudy
2:55 AM 71.1 °F - 64.4 °F 79% 29.96 in 10.0 mi SSW 5.8 mph - N/A   Overcast
3:15 AM 71.8 °F - 64.2 °F 77% 29.95 in 10.0 mi SSW 8.1 mph - N/A   Overcast
3:35 AM 72.5 °F - 63.7 °F 74% 29.95 in 10.0 mi SSW 8.1 mph - N/A   Overcast
3:55 AM 73.0 °F - 63.3 °F 71% 29.95 in 10.0 mi SSW 8.1 mph - N/A   Overcast
4:15 AM 73.4 °F - 63.0 °F 70% 29.95 in 10.0 mi SSW 9.2 mph - N/A   Overcast
4:35 AM 72.3 °F - 63.5 °F 74% 29.96 in 10.0 mi SW 5.8 mph - N/A   Mostly Cloudy
4:55 AM 72.5 °F - 63.5 °F 73% 29.96 in 10.0 mi SW 8.1 mph - N/A   Mostly Cloudy
5:15 AM 72.5 °F - 63.1 °F 72% 29.95 in 10.0 mi SW 8.1 mph - N/A   Mostly Cloudy
5:35 AM 72.7 °F - 63.3 °F 72% 29.95 in 10.0 mi SSW 8.1 mph - N/A   Mostly Cloudy
5:55 AM 72.1 °F - 63.5 °F 74% 29.94 in 10.0 mi SSW 6.9 mph - N/A   Mostly Cloudy
6:15 AM 72.1 °F - 63.5 °F 74% 29.95 in 10.0 mi SSW 8.1 mph - N/A   Overcast
6:35 AM 72.5 °F - 63.9 °F 74% 29.95 in 10.0 mi SSW 6.9 mph - N/A   Overcast
6:55 AM 72.5 °F - 64.4 °F 76% 29.95 in 10.0 mi SW 5.8 mph - N/A   Overcast
7:15 AM 72.5 °F - 64.6 °F 76% 29.96 in 10.0 mi SW 6.9 mph - N/A   Overcast
7:35 AM 72.5 °F - 65.3 °F 78% 29.95 in 10.0 mi SW 6.9 mph - N/A   Overcast
7:55 AM 72.9 °F - 65.7 °F 78% 29.96 in 10.0 mi SW 6.9 mph - N/A   Mostly Cloudy
8:15 AM 73.4 °F - 66.2 °F 78% 29.96 in 10.0 mi WSW 6.9 mph - N/A   Clear
8:35 AM 74.3 °F - 66.7 °F 77% 29.96 in 10.0 mi SW 5.8 mph - N/A   Mostly Cloudy
8:55 AM 75.2 °F - 67.1 °F 76% 29.96 in 10.0 mi SW 5.8 mph - N/A   Mostly Cloudy
9:15 AM 75.2 °F - 67.3 °F 76% 29.96 in 10.0 mi SW 6.9 mph - N/A   Scattered Clouds
9:35 AM 75.2 °F - 67.5 °F 77% 29.97 in 10.0 mi WSW 8.1 mph - N/A   Scattered Clouds
9:55 AM 76.1 °F - 68.0 °F 76% 29.97 in 10.0 mi SW 8.1 mph - N/A   Mostly Cloudy
10:15 AM 76.1 °F - 67.6 °F 75% 29.96 in 10.0 mi WSW 4.6 mph - N/A   Mostly Cloudy
10:35 AM 77.2 °F - 68.7 °F 75% 29.97 in 10.0 mi SW 8.1 mph - N/A   Mostly Cloudy
10:55 AM 77.4 °F - 68.4 °F 74% 29.96 in 10.0 mi SW 6.9 mph - N/A   Mostly Cloudy
11:15 AM 78.4 °F - 68.5 °F 72% 29.97 in 10.0 mi SW 6.9 mph - N/A   Mostly Cloudy
11:35 AM 80.6 °F 83.6 °F 69.3 °F 68% 29.97 in 10.0 mi WSW 5.8 mph - N/A   Scattered Clouds
11:55 AM 81.7 °F 85.1 °F 69.4 °F 66% 29.97 in 10.0 mi WSW 4.6 mph - N/A   Scattered Clouds
12:15 PM 82.4 °F 85.8 °F 69.3 °F 64% 29.97 in 10.0 mi SW 4.6 mph - N/A   Clear
12:35 PM 82.4 °F 85.8 °F 68.9 °F 64% 29.97 in 10.0 mi SW 4.6 mph - N/A   Mostly Cloudy
12:55 PM 83.8 °F 87.3 °F 68.7 °F 60% 29.96 in 10.0 mi SSW 3.5 mph - N/A   Scattered Clouds
1:15 PM 84.2 °F 86.3 °F 65.8 °F 54% 29.95 in 10.0 mi SW 4.6 mph - N/A   Scattered Clouds
1:35 PM 85.3 °F 87.6 °F 66.4 °F 53% 29.95 in 10.0 mi SW 6.9 mph - N/A   Scattered Clouds
1:55 PM 85.3 °F 87.6 °F 66.6 °F 53% 29.95 in 10.0 mi SW 5.8 mph - N/A   Scattered Clouds
2:15 PM 85.6 °F 88.2 °F 66.9 °F 53% 29.94 in 10.0 mi WSW 6.9 mph - N/A   Scattered Clouds
2:35 PM 85.3 °F 87.9 °F 66.7 °F 54% 29.94 in 10.0 mi WSW 4.6 mph - N/A   Scattered Clouds
2:55 PM 86.2 °F 89.1 °F 67.3 °F 53% 29.93 in 10.0 mi SW 8.1 mph - N/A   Mostly Cloudy
3:15 PM 85.5 °F 88.2 °F 66.9 °F 54% 29.93 in 10.0 mi WSW 6.9 mph - N/A   Mostly Cloudy
3:35 PM 85.5 °F 89.1 °F 68.7 °F 57% 29.92 in 10.0 mi SW 6.9 mph - N/A   Overcast
3:55 PM 85.6 °F 88.5 °F 67.3 °F 54% 29.92 in 10.0 mi SW 11.5 mph - N/A   Mostly Cloudy
4:15 PM 85.3 °F 88.5 °F 68.2 °F 56% 29.92 in 10.0 mi SW 8.1 mph - N/A   Mostly Cloudy
4:35 PM 85.5 °F 88.8 °F 68.4 °F 56% 29.92 in 10.0 mi SSW 10.4 mph - N/A   Mostly Cloudy
4:55 PM 85.3 °F 89.1 °F 68.9 °F 58% 29.92 in 10.0 mi SW 8.1 mph - N/A   Mostly Cloudy
5:15 PM 84.0 °F 87.6 °F 68.7 °F 60% 29.92 in 10.0 mi SW 6.9 mph - N/A   Scattered Clouds
5:35 PM 84.9 °F 88.8 °F 69.3 °F 59% 29.92 in 10.0 mi SW 5.8 mph - N/A   Scattered Clouds
5:55 PM 84.6 °F 87.9 °F 68.5 °F 58% 29.92 in 10.0 mi WSW 5.8 mph - N/A   Scattered Clouds
6:15 PM 84.9 °F 89.4 °F 70.0 °F 61% 29.92 in 10.0 mi WSW 4.6 mph - N/A   Mostly Cloudy
6:35 PM 83.7 °F 87.7 °F 69.8 °F 63% 29.92 in 10.0 mi WSW 4.6 mph - N/A   Mostly Cloudy
6:55 PM 81.7 °F 85.4 °F 70.2 °F 68% 29.93 in 10.0 mi SSW 8.1 mph - N/A   Mostly Cloudy
7:15 PM 80.4 °F 83.0 °F 67.8 °F 65% 29.94 in 10.0 mi SW 13.8 mph 18.4 mph N/A   Mostly Cloudy
7:35 PM 77.9 °F - 68.0 °F 71% 29.94 in 10.0 mi SW 8.1 mph - N/A   Scattered Clouds
7:55 PM 76.5 °F - 68.9 °F 77% 29.95 in 10.0 mi SW 5.8 mph - N/A   Scattered Clouds
8:15 PM 75.9 °F - 70.0 °F 82% 29.95 in 10.0 mi WSW 8.1 mph - N/A   Scattered Clouds
8:35 PM 75.2 °F - 70.7 °F 86% 29.95 in 10.0 mi SW 5.8 mph - N/A   Scattered Clouds
8:55 PM 74.7 °F - 71.1 °F 88% 29.95 in 10.0 mi SSW 5.8 mph - N/A   Clear
9:15 PM 74.5 °F - 70.9 °F 88% 29.95 in 10.0 mi SW 5.8 mph - N/A   Scattered Clouds
9:35 PM 74.1 °F - 70.7 °F 89% 29.95 in 10.0 mi SW 4.6 mph - N/A   Mostly Cloudy
9:55 PM 73.8 °F - 70.7 °F 90% 29.97 in 10.0 mi WNW 4.6 mph - N/A   Mostly Cloudy
10:15 PM 73.6 °F - 70.0 °F 88% 29.98 in 10.0 mi West 4.6 mph - N/A   Mostly Cloudy
10:35 PM 73.8 °F - 70.0 °F 88% 29.98 in 10.0 mi Calm Calm - N/A   Overcast
10:55 PM 73.4 °F - 70.0 °F 89% 29.98 in 10.0 mi Calm Calm - N/A   Overcast
11:15 PM 73.4 °F - 70.3 °F 90% 29.99 in 10.0 mi Calm Calm - N/A   Overcast
11:35 PM 73.6 °F - 70.7 °F 91% 29.99 in 10.0 mi NNW 4.6 mph - N/A   Overcast
11:55 PM 73.9 °F - 70.3 °F 88% 30.00 in 10.0 mi WNW 4.6 mph - N/A   Overcast